Location: Ferintosh
(52.7647°N, 112.9692°W)
Time: 21:37:48
(UTC+00:00)

Transit 2A - Pass Details

Date: 23 May 2024
Orbit: 593 x 959 km, 66.7° (Epoch: 12 June)

Event Time Altitude Azimuth Distance (km) Brightness Sun altitude
Rises 09:20:03 0° 282° (WNW) 3,101 9.0 -12.6°
Reaches altitude 10° 09:22:53 10° 299° (WNW) 2,250 8.5 -12.5°
Maximum altitude 09:26:45 21° 348° (NNW) 1,719 8.5 -12.2°
Drops below altitude 10° 09:30:54 10° 36° (NE) 2,441 10.1 -11.9°
Sets 09:34:07 0° 52° (NE) 3,448 10.8 -11.6°
